Simultaneous Nadir Overpasses (SNOs) Predictions

Prediction of SNOs between GOES-16 and TERRA Satellite Orbit:

Table of predicted SNOs for the next 14.0 days since TLE Epoch: 3/9/2019
Index Date Time (GOES-16) GOES-16 Lat,Lon TERRA Lat,Lon Distance(km) Time Diff (sec)
1 03/10/2019 03:21:12 -0.03, -75.20 0.42, -73.09 239.93 80
2 03/10/2019 15:45:07 0.03, -75.21 0.70, -78.24 344.94 80
3 03/12/2019 15:32:55 0.03, -75.22 0.04, -75.28 7.52 80
4 03/14/2019 15:18:02 0.02, -75.23 -0.62, -72.32 330.43 80
5 03/15/2019 03:42:05 -0.03, -75.22 -0.51, -77.51 260.54 80
6 03/17/2019 03:27:10 -0.02, -75.23 0.10, -74.53 78.26 80
7 03/19/2019 03:14:55 -0.01, -75.24 0.77, -71.57 417.89 80
8 03/19/2019 15:36:09 0.01, -75.26 0.35, -76.72 166.26 80
9 03/21/2019 15:26:33 0.01, -75.29 -0.34, -73.75 175.21 80
10 03/22/2019 03:47:54 -0.01, -75.28 -0.80, -78.93 414.65 80




NCC Satellite Simultaneous Nadir Overpasses (SNOs) Prediction Service
